CST,Max TemperatureF,Mean TemperatureF,Min TemperatureF,Max Dew PointF,MeanDew PointF,Min DewpointF,Max Humidity, Mean Humidity, Min Humidity, Max Sea Level PressureIn, Mean Sea Level PressureIn, Min Sea Level PressureIn, Max VisibilityMiles, Mean VisibilityMiles, Min VisibilityMiles, Max Wind SpeedMPH, Mean Wind SpeedMPH, Max Gust SpeedMPH,PrecipitationIn, CloudCover, Events, WindDirDegrees
2013-11-1,51,44,35,39,38,34,100,86,58,29.86,29.62,29.43,10,9,5,14,9,20,0.00,6,,287
2013-11-2,48,39,30,37,33,28,100,83,54,30.10,30.02,29.86,10,10,7,13,5,17,0.00,1,,283
2013-11-3,53,42,32,37,33,28,93,70,47,30.11,30.00,29.88,10,10,10,31,11,40,0.00,0,,144
2013-11-4,48,39,30,46,38,30,100,85,62,30.15,29.94,29.85,10,9,0,22,14,31,0.00,4,,183
2013-11-5,44,34,24,37,30,25,100,84,57,30.23,30.12,29.97,10,6,0,18,3,24,0.00,5,,12
2013-11-6,39,36,32,30,26,21,81,68,49,30.18,30.09,29.97,10,9,2,15,10,22,0.00,4,,279
2013-11-7,39,34,30,28,26,25,87,73,61,30.23,30.21,30.17,10,9,0,17,7,18,0.00,6,,239
2013-11-8,48,37,26,39,26,19,80,61,34,30.20,29.93,29.64,10,10,7,25,8,37,0.00,3,,158
2013-11-9,48,42,35,39,31,23,76,60,46,30.22,29.94,29.65,10,10,10,28,14,39,0.00,6,,268
2013-11-10,44,38,33,28,26,25,70,58,49,30.33,30.24,30.08,10,10,10,14,8,24,0.00,6,,233
2013-11-11,41,29,17,30,14,7,81,57,43,30.69,30.40,30.09,10,9,2,17,10,23,0.00,3,,327
2013-11-12,28,20,12,12,8,5,79,59,37,30.77,30.67,30.46,10,10,10,10,6,16,0.00,0,,244
2013-11-13,51,38,26,28,20,9,56,47,39,30.45,30.11,29.91,10,10,10,17,11,24,0.00,0,,190
2013-11-14,51,42,32,37,30,25,87,68,54,29.90,29.84,29.78,10,9,2,10,7,,0.00,1,,191
2013-11-15,59,44,28,37,31,25,87,65,36,29.86,29.78,29.65,10,8,1,17,4,25,0.00,0,,170
2013-11-16,57,50,42,50,41,32,82,74,61,29.65,29.42,29.23,10,7,2,16,10,24,0.01,4,Rain-Thunderstorm,164
2013-11-17,46,40,35,37,32,25,81,68,60,29.84,29.51,29.33,10,9,4,26,10,37,0.00,5,,262
2013-11-18,39,31,23,25,19,16,80,60,42,30.25,30.10,29.86,10,10,10,25,14,32,0.00,4,,284
2013-11-19,48,34,19,27,21,16,86,55,34,30.25,30.08,29.92,10,10,7,25,8,37,0.00,2,,145
2013-11-20,46,42,39,34,26,18,81,54,32,30.03,29.94,29.89,10,8,4,22,16,33,0.00,8,,155
2013-11-21,39,32,26,36,27,18,87,79,64,30.48,30.25,30.03,10,4,0,16,6,23,0.00,8,Fog-Snow,312
2013-11-22,33,24,15,18,10,1,73,55,30,30.58,30.52,30.45,10,10,5,18,8,23,0.00,2,Snow,275
2013-11-23,19,14,8,1,0,-2,67,56,39,30.82,30.73,30.59,10,10,10,16,10,23,0.00,0,,301
2013-11-24,32,19,6,10,5,-2,72,52,37,30.69,30.36,30.04,10,10,10,22,8,33,0.00,1,,177
2013-11-25,42,35,28,25,19,12,64,50,36,30.07,30.00,29.93,10,10,10,20,13,28,0.00,6,,251
2013-11-26,33,24,15,18,4,-2,60,44,34,30.35,30.22,30.08,10,10,10,23,15,31,0.00,4,,312
2013-11-27,32,20,8,9,4,1,79,54,30,30.35,30.22,30.05,10,10,10,14,5,16,0.00,2,,162
2013-11-28,32,22,12,10,9,3,79,54,38,30.49,30.27,30.04,10,10,10,15,6,21,0.00,4,,307
2013-11-29,35,22,10,19,12,3,79,58,38,30.49,30.35,30.14,10,10,10,17,6,25,0.00,1,,158
2013-11-30,44,34,24,23,21,18,80,59,43,30.14,30.07,30.02,10,10,7,12,7,,0.00,2,,242